SCOUT A R/B, 3137

Orbit data source: Space-Track

SCOUT A R/B, 3137 is space debris in LEO originally from a launch on Sat, 02 Mar 1968 UTC launched from the Air Force Western Test Range (AFWTR). Debris objects in space refer to the collection of defunct objects orbiting the Earth. Examples of debris include non-operational satellites, rocket bodies, and fragments generated from explosions, collisions, or faulty payload assembly.

Loading next visibility...
Identifier
3137, 1968-012B
Orbit
LEO
Last TLE update
13 hours ago
Origin
Manufacturer
ABL
Mission
Spacecraft
Bus & Motor
ALTAIR, Unknown motor
Mass
33 kg wet, 33 kg dry
Launch date (UTC)
1968-03-02 (57 years ago)
Launch vehicle
Unknown
Launch site
Air Force Western Test Range (AFWTR)
Object type
Payload
Rocket body
Debris
Shape & HBR
Cyl, 1.5 m
Radar Cross Section
0.687 m², Medium (>0.1 m² and < 1m²)

Expand to show TLE details & history

TLE from 13 hours ago
0 SCOUT A R/B
1 03137U 68012B   25128.78313894  .00000048  00000-0  59146-4 0  9993
2 03137  90.0236 272.4457 0075901 158.8643 201.5674 13.50249556814215
Epoch: 2025-05-08T18:47Z
Definitive object data (Epoch: 2025-05-08T18:47:43.204Z)
Latitude
0.00007°
Longitude
123.667°
Altitude
1,126.946 km
Speed
7.263 km/s
True Right ascension
18h 09m 46s
True Declination
0° 00' 00"
Sunlit
Object was in full shadow at TLE epoch
Visualization TLE readout
Latitude
4.8117°
Longitude
-56.3297°
Altitude
1,019.925 km
Speed
7.369 km/s
Apparent Right ascension
05h 24m 24s
Apparent Declination
-16° 10' 33"
Sunlit
Object is in daylight
Visualization observer readout
Local Sidereal Time
16:15:29
Azimuth
322.818° NNW
Elevation
-61.926°
Doppler factor
1
Orbital elements
Apogee altitude
1,124.91 km
Perigee altitude
1,011.87 km
Semi-major axis
7,446.527 km
Eccentricity
0.0075901
Inclination
90.0236°
RAAN
272.4457°
Arg. of periapsis
158.8643°
True anomaly
201.25048°
Mean anomaly
201.5674°
Eccentric anomaly
201.40866°
Mean motion
3.37763 °/min
BSTAR
0.000059146
Orbital period
106.58 mins
Loading maneuver chart data...
Loading SW <> Apogee altitude chart data...
Loading historical data...
Loading historical data...
Loading historical data...
Loading historical data...
Loading historical data...
Loading historical data...
Loading historical data...

SCOUT A R/B Visibility forecast

Observer location: undefined°, undefined°

Span
Click to sort rows by Start time (UTC) header in descending order
Start Az.
Max El. time (UTC)
Max El. Az.
Max El.
End time (UTC)
End Az.
11 mins2025-05-09 09:08:23.396Z142.52° SSE2025-05-09 09:13:23.396Z85.108° E33.098°2025-05-09 09:19:23.396Z14.04° NNE
10 mins2025-05-09 10:55:23.396Z220.808° SW2025-05-09 11:00:23.396Z280.574° WNW28.19°2025-05-09 11:05:23.396Z335.055° NNW
5 mins2025-05-09 20:20:23.396Z53.489° ENE2025-05-09 20:22:23.396Z74.155° E15.05°2025-05-09 20:25:23.396Z105.064° ESE
10 mins2025-05-09 22:05:23.396Z356.272° N2025-05-09 22:09:23.396Z307.528° NW43.522°2025-05-09 22:15:23.396Z192.053° SSW
|